TimeCST,TemperatureF,Dew PointF,Humidity,Sea Level PressureIn,VisibilityMPH,Wind Direction,Wind SpeedMPH,Gust SpeedMPH,PrecipitationIn,Events,Conditions,WindDirDegrees,DateUTC
12:53 AM,37.9,28.0,68,29.92,10.0,SSE,6.9,-,N/A,,Clear,160,2013-02-18 06:53:00
1:53 AM,37.9,28.0,68,29.90,10.0,SSE,8.1,-,N/A,,Clear,150,2013-02-18 07:53:00
2:53 AM,37.9,28.9,70,29.89,10.0,SSE,8.1,-,N/A,,Clear,150,2013-02-18 08:53:00
4:53 AM,37.0,30.0,76,29.85,10.0,SE,5.8,-,N/A,,Clear,140,2013-02-18 10:53:00
5:53 AM,39.0,32.0,76,29.84,10.0,SSE,4.6,-,N/A,,Clear,150,2013-02-18 11:53:00
6:53 AM,37.9,33.1,83,29.83,10.0,ESE,4.6,-,N/A,,Clear,110,2013-02-18 12:53:00
8:53 AM,52.0,39.9,63,29.80,10.0,South,13.8,24.2,N/A,,Clear,190,2013-02-18 14:53:00
9:53 AM,55.9,43.0,62,29.78,10.0,South,20.7,34.5,N/A,,Clear,190,2013-02-18 15:53:00
10:53 AM,55.9,44.1,64,29.79,10.0,South,16.1,29.9,N/A,,Overcast,190,2013-02-18 16:53:00
11:31 AM,55.4,44.6,67,29.78,10.0,South,15.0,29.9,N/A,,Overcast,190,2013-02-18 17:31:00
11:53 AM,55.9,44.1,64,29.76,10.0,South,13.8,24.2,N/A,,Overcast,180,2013-02-18 17:53:00
12:16 PM,55.4,44.6,67,29.74,10.0,South,13.8,25.3,N/A,,Overcast,170,2013-02-18 18:16:00
12:53 PM,55.0,44.1,67,29.72,10.0,South,16.1,25.3,N/A,,Overcast,180,2013-02-18 18:53:00
1:53 PM,53.1,44.1,71,29.69,10.0,South,19.6,27.6,N/A,,Overcast,170,2013-02-18 19:53:00
2:53 PM,52.0,45.0,77,29.65,10.0,South,17.3,27.6,N/A,,Overcast,170,2013-02-18 20:53:00
3:53 PM,51.1,45.0,80,29.62,10.0,South,17.3,26.5,0.00,,Overcast,170,2013-02-18 21:53:00
4:53 PM,51.1,46.0,83,29.60,9.0,South,10.4,24.2,0.00,Rain,Light Rain,170,2013-02-18 22:53:00
5:53 PM,50.0,46.9,89,29.57,7.0,South,12.7,21.9,0.04,Rain,Light Rain,170,2013-02-18 23:53:00
6:53 PM,51.1,46.9,86,29.60,7.0,SSW,15.0,21.9,0.01,Rain,Light Rain,210,2013-02-19 00:53:00
7:24 PM,46.4,41.0,81,29.66,10.0,WNW,21.9,39.1,0.02,Rain,Light Rain,290,2013-02-19 01:24:00
7:51 PM,42.8,37.4,81,29.71,10.0,WNW,31.1,43.7,0.02,,Overcast,300,2013-02-19 01:51:00
7:53 PM,42.1,37.0,82,29.71,10.0,WNW,31.1,42.6,0.02,,Overcast,300,2013-02-19 01:53:00
8:53 PM,39.9,34.0,79,29.78,10.0,WNW,13.8,32.2,N/A,,Overcast,300,2013-02-19 02:53:00
9:53 PM,39.0,33.1,79,29.83,10.0,NW,25.3,33.4,N/A,,Overcast,310,2013-02-19 03:53:00
10:53 PM,36.0,26.1,67,29.88,10.0,WNW,21.9,31.1,N/A,,Overcast,290,2013-02-19 04:53:00
11:53 PM,35.1,24.1,64,29.92,10.0,West,19.6,28.8,N/A,,Overcast,270,2013-02-19 05:53:00